Location: Arbon
(43.0005°N, 0.7472°E)
Time: 19:21:22
(UTC+00:00)

Courier 1B Rocket - Pass Details

Date: 29 November 2020
Orbit: 920 x 1202 km, 28.2° (Epoch: 22 January)

Event Time Altitude Azimuth Distance (km) Brightness Sun altitude
Rises 09:27:56 0° 255° (WSW) 4,047 8.0 18.1°
Reaches altitude 10° 09:31:48 10° 238° (WSW) 3,045 7.6 18.5°
Maximum altitude 09:36:34 18° 198° (SSW) 2,426 7.8 18.9°
Drops below altitude 10° 09:41:11 10° 158° (SSE) 2,915 9.7 19.4°
Sets 09:44:47 0° 140° (SE) 3,812 9.6 19.7°
